{"data":{"norad_id":65250,"epoch":"2026-05-25T03:01:14.774016Z","epoch_age_seconds":67390,"freshness":"FRESH","line1":"1 65250U 25179R   26145.12586544  .00004499  00000+0  31562-3 0  9990","line2":"2 65250  97.4470 188.0023 0002324 133.5075 226.6345 15.05657557 43313","mean_motion":15.05657557,"eccentricity":0.0002324,"inclination_deg":97.447,"raan_deg":188.0023,"arg_perigee_deg":133.5075,"mean_anomaly_deg":226.6345,"bstar":0.00031562,"rev_number":4331,"period_min":95.639276893026,"perigee_km":547.87799374387,"apogee_km":551.09795383169,"semimajor_km":6927.6249737878,"source":"CELESTRAK","updated_at":"2026-05-25T13:38:20.727191Z"}}